DELTA 1 DEB, 7022

Orbit data source: Space-Track

DELTA 1 DEB, 7022 is space debris in SSO originally from a launch on Tue, 06 Nov 1973 UTC launched from the Air Force Western Test Range (AFWTR). Debris objects in space refer to the collection of defunct objects orbiting the Earth. Examples of debris include non-operational satellites, rocket bodies, and fragments generated from explosions, collisions, or faulty payload assembly.

Loading next visibility...
Identifier
7022, 1973-086N
Orbit
SSO
Country
Flag of USUS
Related business
Manufacturer
Unknown
Mission
Spacecraft
Bus & Motor
Unknown
Mass
Unknown
Launch date (UTC)
1973-11-06 (53 years ago)
Launch vehicle
Unknown
Launch site
Air Force Western Test Range (AFWTR)
Object type
Payload
Rocket body
Debris
Shape & HBR
Unknown shape, 0.2 m
Radar Cross Section
Medium (>0.1 m² and <1 m²)

Expand to show TLE details & history
Last TLE update: 12 hours ago

TLE from 12 hours ago
0 DELTA 1 DEB
1 07022U 73086N   26133.21512098 -.00000139  00000-0 -60756-3 0  9990
2 07022 102.3236 213.1884 0183603 306.4786  73.5163 12.44406018384327
Epoch: 2026-05-13T05:09Z
TLE epoch observation values (Epoch: 2026-05-13T05:09:46.452Z)
Latitude
21.50488°
Longitude
-100.14714°
Altitude
1,451.75 km
Speed
7.155 km/s
True Right ascension
13h 53m 05s
True Declination
21° 23' 54"
Sunlit
Object was in full shadow at epoch
Visualization orbit readout
Latitude
Unknown
Longitude
Unknown
Altitude
Unknown
Speed
Unknown
Apparent Right ascension
Unknown
Apparent Declination
Unknown
Sunlit
N/A
Visualization observer readout
Local Sidereal Time
01:45:42
Azimuth
Unknown
Elevation
Unknown
Doppler factor
Unknown
Orbital elements
Apogee altitude
1,629.948 km
Perigee altitude
1,341.188 km
Semi-major axis
7,863.705 km
Eccentricity
0.01836
Inclination
102.3236°
RAAN
213.1884°
Arg. of periapsis
306.4786°
True anomaly
75.54656°
Mean anomaly
73.5163°
Eccentric anomaly
74.53016°
Mean motion
3.11245 °/min
Orbital period
115.66 mins
BSTAR
-0.00060756
Loading maneuver chart data...
Computing Atmospheric mass density...
Loading historical data...
Loading historical data...
Loading historical data...
Loading historical data...
Loading historical data...
Loading historical data...
Loading historical data...

Documentation

Showing up to 5 results
|